Time,TemperatureF,DewpointF,PressureIn,WindDirection,WindDirectionDegrees,WindSpeedMPH,WindSpeedGustMPH,Humidity,HourlyPrecipIn,Conditions,Clouds,dailyrainin,SoftwareType,DateUTC
2013-11-24 00:00:00,14.6,7.5,30.92,ENE,66,0.0,1.0,73,0.00,,---,0.00,VWS V14.01,2013-11-24 06:00:00,
2013-11-24 00:02:00,14.0,7.6,30.91,NNE,30,0.0,1.0,75,0.00,,---,0.00,VWS V14.01,2013-11-24 06:02:00,
2013-11-24 00:07:00,14.0,7.2,30.91,NNE,30,0.0,1.0,74,0.00,,---,0.00,VWS V14.01,2013-11-24 06:07:00,
2013-11-24 00:10:00,14.5,7.4,30.92,ENE,66,0.0,2.0,73,0.00,,---,0.00,VWS V14.01,2013-11-24 06:10:00,
2013-11-24 00:12:00,14.0,7.6,30.90,NNE,30,0.0,1.0,75,0.00,,---,0.00,VWS V14.01,2013-11-24 06:12:00,
2013-11-24 00:17:00,13.9,7.4,30.90,NNE,30,0.0,1.0,75,0.00,,---,0.00,VWS V14.01,2013-11-24 06:17:00,
2013-11-24 00:20:00,14.4,7.6,30.91,ENE,66,0.0,0.0,74,0.00,,---,0.00,VWS V14.01,2013-11-24 06:20:00,
2013-11-24 00:22:00,13.9,7.8,30.90,NNE,30,0.0,0.0,76,0.00,,---,0.00,VWS V14.01,2013-11-24 06:22:00,
2013-11-24 00:27:00,13.8,7.4,30.90,ENE,63,1.0,2.0,75,0.00,,---,0.00,VWS V14.01,2013-11-24 06:27:00,
2013-11-24 00:30:00,14.3,7.6,30.91,ENE,66,0.0,2.0,74,0.00,,---,0.00,VWS V14.01,2013-11-24 06:30:00,
2013-11-24 00:32:00,13.7,7.3,30.90,ENE,59,0.0,3.0,75,0.00,,---,0.00,VWS V14.01,2013-11-24 06:32:00,
2013-11-24 00:37:00,13.7,7.3,30.90,ENE,59,0.0,3.0,75,0.00,,---,0.00,VWS V14.01,2013-11-24 06:37:00,
2013-11-24 00:40:00,14.2,7.4,30.91,ENE,66,0.0,2.0,74,0.00,,---,0.00,VWS V14.01,2013-11-24 06:40:00,
2013-11-24 00:42:00,13.6,9.4,30.90,ENE,59,0.0,3.0,83,0.00,,---,0.00,VWS V14.01,2013-11-24 06:42:00,
2013-11-24 00:47:00,13.6,7.2,30.90,ENE,59,0.0,3.0,75,0.00,,---,0.00,VWS V14.01,2013-11-24 06:47:00,
2013-11-24 00:50:00,14.1,7.3,30.91,NNE,30,0.0,3.0,74,0.00,,---,0.00,VWS V14.01,2013-11-24 06:50:00,
2013-11-24 00:52:00,13.6,7.2,30.89,ENE,59,0.0,3.0,75,0.00,,---,0.00,VWS V14.01,2013-11-24 06:52:00,
2013-11-24 00:57:00,13.6,7.5,30.90,ENE,59,0.0,3.0,76,0.00,,---,0.00,VWS V14.01,2013-11-24 06:57:00,
2013-11-24 01:00:00,14.1,7.3,30.91,NNE,30,0.0,2.0,74,0.00,,---,0.00,VWS V14.01,2013-11-24 07:00:00,
2013-11-24 01:02:00,13.5,7.1,30.90,ENE,59,0.0,1.0,75,0.00,,---,0.00,VWS V14.01,2013-11-24 07:02:00,
2013-11-24 01:07:00,13.5,7.1,30.90,ENE,59,0.0,1.0,75,0.00,,---,0.00,VWS V14.01,2013-11-24 07:07:00,
2013-11-24 01:10:00,14.0,7.3,30.91,NNE,30,0.0,1.0,74,0.00,,---,0.00,VWS V14.01,2013-11-24 07:10:00,
2013-11-24 01:12:00,13.4,7.0,30.90,ENE,59,0.0,0.0,75,0.00,,---,0.00,VWS V14.01,2013-11-24 07:12:00,
2013-11-24 01:17:00,13.3,7.2,30.89,ENE,59,0.0,1.0,76,0.00,,---,0.00,VWS V14.01,2013-11-24 07:17:00,
2013-11-24 01:20:00,13.9,7.4,30.90,NNE,30,0.0,1.0,75,0.00,,---,0.00,VWS V14.01,2013-11-24 07:20:00,
2013-11-24 01:22:00,13.3,7.2,30.89,ENE,59,0.0,1.0,76,0.00,,---,0.00,VWS V14.01,2013-11-24 07:22:00,
2013-11-24 01:27:00,13.3,7.4,30.89,ENE,59,0.0,2.0,77,0.00,,---,0.00,VWS V14.01,2013-11-24 07:27:00,
2013-11-24 01:30:00,13.7,7.3,30.90,ENE,59,2.0,2.0,75,0.00,,---,0.00,VWS V14.01,2013-11-24 07:30:00,
2013-11-24 01:32:00,13.2,7.1,30.89,ENE,59,0.0,0.0,76,0.00,,---,0.00,VWS V14.01,2013-11-24 07:32:00,
2013-11-24 01:37:00,13.2,7.3,30.90,ENE,59,0.0,0.0,77,0.00,,---,0.00,VWS V14.01,2013-11-24 07:37:00,
2013-11-24 01:40:00,13.7,7.3,30.90,ENE,59,0.0,3.0,75,0.00,,---,0.00,VWS V14.01,2013-11-24 07:40:00,
2013-11-24 01:42:00,13.2,7.1,30.90,ENE,59,0.0,1.0,76,0.00,,---,0.00,VWS V14.01,2013-11-24 07:42:00,
2013-11-24 01:47:00,13.1,7.0,30.90,ENE,59,0.0,1.0,76,0.00,,---,0.00,VWS V14.01,2013-11-24 07:47:00,
2013-11-24 01:50:00,13.6,7.2,30.89,ENE,59,0.0,3.0,75,0.00,,---,0.00,VWS V14.01,2013-11-24 07:50:00,
2013-11-24 01:52:00,13.0,7.2,30.90,ENE,59,0.0,0.0,77,0.00,,---,0.00,VWS V14.01,2013-11-24 07:52:00,
2013-11-24 01:57:00,13.0,7.2,30.89,ENE,59,0.0,0.0,77,0.00,,---,0.00,VWS V14.01,2013-11-24 07:57:00,
2013-11-24 02:00:00,13.6,7.2,30.90,ENE,59,0.0,3.0,75,0.00,,---,0.00,VWS V14.01,2013-11-24 08:00:00,
2013-11-24 02:02:00,13.1,7.5,30.89,ENE,59,0.0,0.0,78,0.00,,---,0.00,VWS V14.01,2013-11-24 08:02:00,
2013-11-24 02:07:00,13.1,7.5,30.89,ENE,59,0.0,2.0,78,0.00,,---,0.00,VWS V14.01,2013-11-24 08:07:00,
2013-11-24 02:10:00,13.4,7.0,30.90,ENE,59,0.0,2.0,75,0.00,,---,0.00,VWS V14.01,2013-11-24 08:10:00,
2013-11-24 02:12:00,13.1,7.5,30.89,ENE,59,0.0,1.0,78,0.00,,---,0.00,VWS V14.01,2013-11-24 08:12:00,
2013-11-24 02:17:00,13.2,7.9,30.89,ENE,59,0.0,1.0,79,0.00,,---,0.00,VWS V14.01,2013-11-24 08:17:00,
2013-11-24 02:20:00,13.3,7.2,30.89,ENE,59,0.0,2.0,76,0.00,,---,0.00,VWS V14.01,2013-11-24 08:20:00,
2013-11-24 02:22:00,13.1,7.5,30.89,ENE,59,0.0,1.0,78,0.00,,---,0.00,VWS V14.01,2013-11-24 08:22:00,
2013-11-24 02:27:00,13.1,7.5,30.89,ENE,59,0.0,1.0,78,0.00,,---,0.00,VWS V14.01,2013-11-24 08:27:00,
2013-11-24 02:30:00,13.2,7.1,30.89,ENE,59,0.0,2.0,76,0.00,,---,0.00,VWS V14.01,2013-11-24 08:30:00,
2013-11-24 02:32:00,13.2,7.9,30.90,ENE,59,0.0,0.0,79,0.00,,---,0.00,VWS V14.01,2013-11-24 08:32:00,
2013-11-24 02:37:00,13.2,7.6,30.90,ENE,59,0.0,1.0,78,0.00,,---,0.00,VWS V14.01,2013-11-24 08:37:00,
2013-11-24 02:40:00,13.2,7.4,30.90,ENE,59,0.0,1.0,77,0.00,,---,0.00,VWS V14.01,2013-11-24 08:40:00,
2013-11-24 02:42:00,13.2,7.6,30.90,ENE,59,0.0,1.0,78,0.00,,---,0.00,VWS V14.01,2013-11-24 08:42:00,
2013-11-24 02:47:00,13.2,7.9,30.90,ENE,59,0.0,1.0,79,0.00,,---,0.00,VWS V14.01,2013-11-24 08:47:00,
2013-11-24 02:50:00,13.0,6.9,30.90,ENE,59,0.0,1.0,76,0.00,,---,0.00,VWS V14.01,2013-11-24 08:50:00,
2013-11-24 02:52:00,13.2,7.6,30.90,ENE,59,0.0,0.0,78,0.00,,---,0.00,VWS V14.01,2013-11-24 08:52:00,
2013-11-24 02:57:00,13.1,7.5,30.90,ENE,59,0.0,1.0,78,0.00,,---,0.00,VWS V14.01,2013-11-24 08:57:00,
2013-11-24 03:00:00,13.0,7.2,30.89,ENE,59,0.0,0.0,77,0.00,,---,0.00,VWS V14.01,2013-11-24 09:00:00,
2013-11-24 03:02:00,13.0,7.4,30.90,ENE,59,0.0,1.0,78,0.00,,---,0.00,VWS V14.01,2013-11-24 09:02:00,
2013-11-24 03:07:00,12.9,7.3,30.90,ENE,59,0.0,1.0,78,0.00,,---,0.00,VWS V14.01,2013-11-24 09:07:00,
2013-11-24 03:10:00,13.1,7.5,30.89,ENE,59,0.0,2.0,78,0.00,,---,0.00,VWS V14.01,2013-11-24 09:10:00,
2013-11-24 03:12:00,12.9,7.3,30.90,ENE,59,0.0,0.0,78,0.00,,---,0.00,VWS V14.01,2013-11-24 09:12:00,
2013-11-24 03:17:00,12.9,7.6,30.89,ENE,59,0.0,0.0,79,0.00,,---,0.00,VWS V14.01,2013-11-24 09:17:00,
2013-11-24 03:20:00,13.2,7.6,30.89,ENE,59,0.0,1.0,78,0.00,,---,0.00,VWS V14.01,2013-11-24 09:20:00,
2013-11-24 03:22:00,12.9,7.3,30.89,ENE,59,0.0,0.0,78,0.00,,---,0.00,VWS V14.01,2013-11-24 09:22:00,
2013-11-24 03:27:00,12.9,7.3,30.89,ENE,59,0.0,1.0,78,0.00,,---,0.00,VWS V14.01,2013-11-24 09:27:00,
2013-11-24 03:30:00,13.2,7.9,30.89,ENE,59,0.0,1.0,79,0.00,,---,0.00,VWS V14.01,2013-11-24 09:30:00,
2013-11-24 03:32:00,12.8,7.2,30.88,ENE,59,0.0,2.0,78,0.00,,---,0.00,VWS V14.01,2013-11-24 09:32:00,
2013-11-24 03:37:00,12.8,7.2,30.88,ENE,59,0.0,2.0,78,0.00,,---,0.00,VWS V14.01,2013-11-24 09:37:00,
2013-11-24 03:40:00,13.2,7.6,30.90,ENE,59,0.0,1.0,78,0.00,,---,0.00,VWS V14.01,2013-11-24 09:40:00,
2013-11-24 03:42:00,12.9,7.6,30.88,ENE,59,0.0,0.0,79,0.00,,---,0.00,VWS V14.01,2013-11-24 09:42:00,
2013-11-24 03:47:00,13.0,7.7,30.88,ENE,59,0.0,1.0,79,0.00,,---,0.00,VWS V14.01,2013-11-24 09:47:00,
2013-11-24 03:50:00,13.2,7.6,30.90,ENE,59,0.0,1.0,78,0.00,,---,0.00,VWS V14.01,2013-11-24 09:50:00,
2013-11-24 03:52:00,13.0,7.4,30.88,ENE,59,0.0,0.0,78,0.00,,---,0.00,VWS V14.01,2013-11-24 09:52:00,
2013-11-24 03:57:00,13.0,7.4,30.88,ENE,59,0.0,1.0,78,0.00,,---,0.00,VWS V14.01,2013-11-24 09:57:00,
2013-11-24 04:00:00,13.0,7.4,30.90,ENE,59,0.0,2.0,78,0.00,,---,0.00,VWS V14.01,2013-11-24 10:00:00,
2013-11-24 04:02:00,12.9,7.3,30.88,ENE,59,0.0,0.0,78,0.00,,---,0.00,VWS V14.01,2013-11-24 10:02:00,
2013-11-24 04:07:00,12.9,7.1,30.88,ENE,59,0.0,0.0,77,0.00,,---,0.00,VWS V14.01,2013-11-24 10:07:00,
2013-11-24 04:10:00,12.9,7.3,30.90,ENE,59,0.0,1.0,78,0.00,,---,0.00,VWS V14.01,2013-11-24 10:10:00,
2013-11-24 04:12:00,12.8,7.2,30.88,ENE,59,0.0,0.0,78,0.00,,---,0.00,VWS V14.01,2013-11-24 10:12:00,
2013-11-24 04:17:00,12.7,6.9,30.88,ENE,59,0.0,0.0,77,0.00,,---,0.00,VWS V14.01,2013-11-24 10:17:00,
2013-11-24 04:20:00,12.9,7.3,30.89,ENE,59,0.0,2.0,78,0.00,,---,0.00,VWS V14.01,2013-11-24 10:20:00,
2013-11-24 04:22:00,12.7,7.2,30.88,ENE,59,0.0,0.0,78,0.00,,---,0.00,VWS V14.01,2013-11-24 10:22:00,
2013-11-24 04:27:00,12.8,7.5,30.88,ENE,59,0.0,0.0,79,0.00,,---,0.00,VWS V14.01,2013-11-24 10:27:00,
2013-11-24 04:30:00,12.8,7.0,30.89,ENE,59,0.0,1.0,77,0.00,,---,0.00,VWS V14.01,2013-11-24 10:30:00,
2013-11-24 04:32:00,12.8,7.5,30.88,ENE,59,0.0,0.0,79,0.00,,---,0.00,VWS V14.01,2013-11-24 10:32:00,
2013-11-24 04:37:00,12.7,7.2,30.88,ENE,59,0.0,0.0,78,0.00,,---,0.00,VWS V14.01,2013-11-24 10:37:00,
2013-11-24 04:40:00,12.8,7.2,30.88,ENE,59,0.0,2.0,78,0.00,,---,0.00,VWS V14.01,2013-11-24 10:40:00,
2013-11-24 04:42:00,12.6,7.1,30.88,ENE,59,0.0,0.0,78,0.00,,---,0.00,VWS V14.01,2013-11-24 10:42:00,
2013-11-24 04:47:00,12.5,7.0,30.88,ENE,59,0.0,0.0,78,0.00,,---,0.00,VWS V14.01,2013-11-24 10:47:00,
2013-11-24 04:50:00,13.0,7.7,30.88,ENE,59,0.0,1.0,79,0.00,,---,0.00,VWS V14.01,2013-11-24 10:50:00,
2013-11-24 04:52:00,12.5,7.5,30.87,ENE,59,0.0,0.0,80,0.00,,---,0.00,VWS V14.01,2013-11-24 10:52:00,
2013-11-24 04:57:00,12.5,7.5,30.87,ENE,59,0.0,0.0,80,0.00,,---,0.00,VWS V14.01,2013-11-24 10:57:00,
2013-11-24 05:00:00,13.0,7.4,30.88,ENE,59,0.0,1.0,78,0.00,,---,0.00,VWS V14.01,2013-11-24 11:00:00,
2013-11-24 05:02:00,12.4,7.4,30.87,ENE,59,0.0,0.0,80,0.00,,---,0.00,VWS V14.01,2013-11-24 11:02:00,
2013-11-24 05:07:00,12.5,7.8,30.87,ENE,59,0.0,0.0,81,0.00,,---,0.00,VWS V14.01,2013-11-24 11:07:00,
2013-11-24 05:10:00,12.8,7.2,30.88,ENE,59,0.0,0.0,78,0.00,,---,0.00,VWS V14.01,2013-11-24 11:10:00,
2013-11-24 05:12:00,12.5,7.8,30.87,ENE,59,0.0,0.0,81,0.00,,---,0.00,VWS V14.01,2013-11-24 11:12:00,
2013-11-24 05:17:00,12.5,8.1,30.87,ENE,59,0.0,0.0,82,0.00,,---,0.00,VWS V14.01,2013-11-24 11:17:00,
2013-11-24 05:20:00,12.7,7.2,30.88,ENE,59,0.0,0.0,78,0.00,,---,0.00,VWS V14.01,2013-11-24 11:20:00,
2013-11-24 05:22:00,12.5,7.8,30.87,ENE,59,0.0,0.0,81,0.00,,---,0.00,VWS V14.01,2013-11-24 11:22:00,
2013-11-24 05:27:00,12.5,7.8,30.87,ENE,59,0.0,1.0,81,0.00,,---,0.00,VWS V14.01,2013-11-24 11:27:00,
2013-11-24 05:30:00,12.8,7.5,30.88,ENE,59,0.0,0.0,79,0.00,,---,0.00,VWS V14.01,2013-11-24 11:30:00,
2013-11-24 05:32:00,12.4,7.7,30.86,ENE,59,0.0,1.0,81,0.00,,---,0.00,VWS V14.01,2013-11-24 11:32:00,
2013-11-24 05:37:00,12.4,7.7,30.86,ENE,59,0.0,1.0,81,0.00,,---,0.00,VWS V14.01,2013-11-24 11:37:00,
2013-11-24 05:40:00,12.7,7.2,30.88,ENE,59,0.0,0.0,78,0.00,,---,0.00,VWS V14.01,2013-11-24 11:40:00,
2013-11-24 05:42:00,12.5,7.8,30.86,ENE,59,0.0,0.0,81,0.00,,---,0.00,VWS V14.01,2013-11-24 11:42:00,
2013-11-24 05:47:00,12.6,8.2,30.86,ENE,59,0.0,1.0,82,0.00,,---,0.00,VWS V14.01,2013-11-24 11:47:00,
2013-11-24 05:50:00,12.5,7.2,30.87,ENE,59,0.0,0.0,79,0.00,,---,0.00,VWS V14.01,2013-11-24 11:50:00,
2013-11-24 05:52:00,12.6,8.2,30.87,ENE,59,0.0,0.0,82,0.00,,---,0.00,VWS V14.01,2013-11-24 11:52:00,
2013-11-24 05:57:00,12.7,8.3,30.86,ENE,59,0.0,1.0,82,0.00,,---,0.00,VWS V14.01,2013-11-24 11:57:00,
2013-11-24 06:00:00,12.4,7.4,30.87,ENE,59,0.0,0.0,80,0.00,,---,0.00,VWS V14.01,2013-11-24 12:00:00,
2013-11-24 06:02:00,12.8,8.1,30.87,ENE,59,0.0,0.0,81,0.00,,---,0.00,VWS V14.01,2013-11-24 12:02:00,
2013-11-24 06:07:00,12.8,7.8,30.87,ENE,59,0.0,1.0,80,0.00,,---,0.00,VWS V14.01,2013-11-24 12:07:00,
2013-11-24 06:10:00,12.5,7.8,30.87,ENE,59,0.0,0.0,81,0.00,,---,0.00,VWS V14.01,2013-11-24 12:10:00,
2013-11-24 06:12:00,12.8,8.1,30.87,ENE,59,0.0,0.0,81,0.00,,---,0.00,VWS V14.01,2013-11-24 12:12:00,
2013-11-24 06:17:00,12.8,7.8,30.87,ENE,59,0.0,1.0,80,0.00,,---,0.00,VWS V14.01,2013-11-24 12:17:00,
2013-11-24 06:20:00,12.5,7.8,30.87,ENE,59,0.0,0.0,81,0.00,,---,0.00,VWS V14.01,2013-11-24 12:20:00,
2013-11-24 06:22:00,12.8,7.8,30.87,ENE,59,0.0,0.0,80,0.00,,---,0.00,VWS V14.01,2013-11-24 12:22:00,
2013-11-24 06:27:00,12.8,8.1,30.87,ENE,59,0.0,0.0,81,0.00,,---,0.00,VWS V14.01,2013-11-24 12:27:00,
2013-11-24 06:30:00,12.5,7.8,30.86,ENE,59,0.0,1.0,81,0.00,,---,0.00,VWS V14.01,2013-11-24 12:30:00,
2013-11-24 06:32:00,12.8,7.8,30.87,ENE,59,0.0,1.0,80,0.00,,---,0.00,VWS V14.01,2013-11-24 12:32:00,
2013-11-24 06:37:00,12.8,7.8,30.87,ENE,59,0.0,1.0,80,0.00,,---,0.00,VWS V14.01,2013-11-24 12:37:00,
2013-11-24 06:40:00,12.4,7.7,30.86,ENE,59,0.0,1.0,81,0.00,,---,0.00,VWS V14.01,2013-11-24 12:40:00,
2013-11-24 06:42:00,12.8,8.1,30.86,ENE,59,0.0,0.0,81,0.00,,---,0.00,VWS V14.01,2013-11-24 12:42:00,
2013-11-24 06:47:00,12.8,8.1,30.86,ENE,59,0.0,1.0,81,0.00,,---,0.00,VWS V14.01,2013-11-24 12:47:00,
2013-11-24 06:50:00,12.6,8.2,30.86,ENE,59,0.0,1.0,82,0.00,,---,0.00,VWS V14.01,2013-11-24 12:50:00,
2013-11-24 06:52:00,12.8,8.1,30.86,ENE,59,0.0,2.0,81,0.00,,---,0.00,VWS V14.01,2013-11-24 12:52:00,
2013-11-24 06:57:00,12.8,7.8,30.85,ENE,59,0.0,2.0,80,0.00,,---,0.00,VWS V14.01,2013-11-24 12:57:00,
2013-11-24 07:00:00,12.8,8.4,30.86,ENE,59,0.0,1.0,82,0.00,,---,0.00,VWS V14.01,2013-11-24 13:00:00,
2013-11-24 07:02:00,12.8,7.8,30.85,ENE,59,0.0,1.0,80,0.00,,---,0.00,VWS V14.01,2013-11-24 13:02:00,
2013-11-24 07:07:00,12.9,7.9,30.85,ENE,59,0.0,1.0,80,0.00,,---,0.00,VWS V14.01,2013-11-24 13:07:00,
2013-11-24 07:10:00,12.8,7.8,30.87,ENE,59,0.0,1.0,80,0.00,,---,0.00,VWS V14.01,2013-11-24 13:10:00,
2013-11-24 07:12:00,12.9,7.9,30.85,ENE,59,0.0,1.0,80,0.00,,---,0.00,VWS V14.01,2013-11-24 13:12:00,
2013-11-24 07:17:00,12.9,7.6,30.85,ENE,59,0.0,1.0,79,0.00,,---,0.00,VWS V14.01,2013-11-24 13:17:00,
2013-11-24 07:20:00,12.8,7.8,30.87,ENE,59,0.0,1.0,80,0.00,,---,0.00,VWS V14.01,2013-11-24 13:20:00,
2013-11-24 07:22:00,13.0,7.7,30.86,ENE,59,0.0,0.0,79,0.00,,---,0.00,VWS V14.01,2013-11-24 13:22:00,
2013-11-24 07:27:00,13.0,7.7,30.86,ENE,59,0.0,1.0,79,0.00,,---,0.00,VWS V14.01,2013-11-24 13:27:00,
2013-11-24 07:30:00,12.8,8.1,30.87,ENE,59,0.0,0.0,81,0.00,,---,0.00,VWS V14.01,2013-11-24 13:30:00,
2013-11-24 07:32:00,13.0,8.0,30.85,ENE,59,0.0,0.0,80,0.00,,---,0.00,VWS V14.01,2013-11-24 13:32:00,
2013-11-24 07:37:00,13.0,8.0,30.86,ENE,59,0.0,1.0,80,0.00,,---,0.00,VWS V14.01,2013-11-24 13:37:00,
2013-11-24 07:40:00,12.8,7.8,30.86,ENE,59,0.0,1.0,80,0.00,,---,0.00,VWS V14.01,2013-11-24 13:40:00,
2013-11-24 07:42:00,13.1,8.1,30.86,ENE,59,0.0,0.0,80,0.00,,---,0.00,VWS V14.01,2013-11-24 13:42:00,
2013-11-24 07:47:00,13.2,8.2,30.85,ENE,59,0.0,3.0,80,0.00,,---,0.00,VWS V14.01,2013-11-24 13:47:00,
2013-11-24 07:50:00,12.8,8.1,30.85,ENE,59,0.0,1.0,81,0.00,,---,0.00,VWS V14.01,2013-11-24 13:50:00,
2013-11-24 07:52:00,13.2,7.9,30.85,ENE,59,1.0,1.0,79,0.00,,---,0.00,VWS V14.01,2013-11-24 13:52:00,
2013-11-24 07:57:00,13.4,8.1,30.85,South,178,0.0,4.0,79,0.00,,---,0.00,VWS V14.01,2013-11-24 13:57:00,
2013-11-24 08:00:00,12.8,7.8,30.85,ENE,59,0.0,2.0,80,0.00,,---,0.00,VWS V14.01,2013-11-24 14:00:00,
2013-11-24 08:02:00,13.4,8.1,30.85,South,178,0.0,1.0,79,0.00,,---,0.00,VWS V14.01,2013-11-24 14:02:00,
2013-11-24 08:07:00,13.5,8.5,30.85,South,178,0.0,2.0,80,0.00,,---,0.00,VWS V14.01,2013-11-24 14:07:00,
2013-11-24 08:10:00,12.9,7.9,30.85,ENE,59,0.0,1.0,80,0.00,,---,0.00,VWS V14.01,2013-11-24 14:10:00,
2013-11-24 08:12:00,13.7,8.4,30.85,South,178,0.0,1.0,79,0.00,,---,0.00,VWS V14.01,2013-11-24 14:12:00,
2013-11-24 08:17:00,13.9,8.6,30.85,South,178,1.0,2.0,79,0.00,,---,0.00,VWS V14.01,2013-11-24 14:17:00,
2013-11-24 08:20:00,12.9,7.6,30.85,ENE,59,0.0,1.0,79,0.00,,---,0.00,VWS V14.01,2013-11-24 14:20:00,
2013-11-24 08:22:00,14.0,8.4,30.85,South,180,0.0,1.0,78,0.00,,---,0.00,VWS V14.01,2013-11-24 14:22:00,
2013-11-24 08:27:00,14.2,8.6,30.85,South,180,0.0,3.0,78,0.00,,---,0.00,VWS V14.01,2013-11-24 14:27:00,
2013-11-24 08:30:00,13.0,7.7,30.85,ENE,59,0.0,2.0,79,0.00,,---,0.00,VWS V14.01,2013-11-24 14:30:00,
2013-11-24 08:32:00,14.3,8.7,30.84,South,180,2.0,4.0,78,0.00,,---,0.00,VWS V14.01,2013-11-24 14:32:00,
2013-11-24 08:37:00,14.6,9.0,30.84,WSW,246,0.0,4.0,78,0.00,,---,0.00,VWS V14.01,2013-11-24 14:37:00,
2013-11-24 08:40:00,13.0,8.0,30.86,ENE,59,0.0,1.0,80,0.00,,---,0.00,VWS V14.01,2013-11-24 14:40:00,
2013-11-24 08:42:00,14.8,9.2,30.84,SW,220,2.0,2.0,78,0.00,,---,0.00,VWS V14.01,2013-11-24 14:42:00,
2013-11-24 08:47:00,15.1,9.2,30.85,SW,219,1.0,4.0,77,0.00,,---,0.00,VWS V14.01,2013-11-24 14:47:00,
2013-11-24 08:50:00,13.2,8.2,30.86,ENE,59,0.0,3.0,80,0.00,,---,0.00,VWS V14.01,2013-11-24 14:50:00,
2013-11-24 08:52:00,15.3,9.1,30.84,SW,225,2.0,3.0,76,0.00,,---,0.00,VWS V14.01,2013-11-24 14:52:00,
2013-11-24 08:57:00,15.5,9.3,30.84,South,169,1.0,3.0,76,0.00,,---,0.00,VWS V14.01,2013-11-24 14:57:00,
2013-11-24 09:00:00,13.4,8.1,30.85,South,178,0.0,4.0,79,0.00,,---,0.00,VWS V14.01,2013-11-24 15:00:00,
2013-11-24 09:02:00,15.9,9.7,30.84,SSW,194,0.0,4.0,76,0.00,,---,0.00,VWS V14.01,2013-11-24 15:02:00,
2013-11-24 09:07:00,16.2,10.0,30.84,SSW,198,3.0,4.0,76,0.00,,---,0.00,VWS V14.01,2013-11-24 15:07:00,
2013-11-24 09:10:00,13.5,8.5,30.85,South,178,0.0,2.0,80,0.00,,---,0.00,VWS V14.01,2013-11-24 15:10:00,
2013-11-24 09:12:00,16.6,10.1,30.84,South,191,0.0,2.0,75,0.00,,---,0.00,VWS V14.01,2013-11-24 15:12:00,
2013-11-24 09:17:00,16.8,10.3,30.84,SSW,200,2.0,3.0,75,0.00,,---,0.00,VWS V14.01,2013-11-24 15:17:00,
2013-11-24 09:20:00,14.0,8.4,30.85,South,180,0.0,3.0,78,0.00,,---,0.00,VWS V14.01,2013-11-24 15:20:00,
2013-11-24 09:22:00,17.1,10.3,30.83,WSW,255,0.0,3.0,74,0.00,,---,0.00,VWS V14.01,2013-11-24 15:22:00,
2013-11-24 09:27:00,17.3,10.4,30.83,SW,223,0.0,4.0,74,0.00,,---,0.00,VWS V14.01,2013-11-24 15:27:00,
2013-11-24 09:30:00,14.3,8.7,30.84,South,180,4.0,4.0,78,0.00,,---,0.00,VWS V14.01,2013-11-24 15:30:00,
2013-11-24 09:32:00,17.6,10.7,30.84,South,188,0.0,3.0,74,0.00,,---,0.00,VWS V14.01,2013-11-24 15:32:00,
2013-11-24 09:37:00,18.0,10.8,30.83,SW,229,0.0,4.0,73,0.00,,---,0.00,VWS V14.01,2013-11-24 15:37:00,
2013-11-24 09:40:00,14.7,9.1,30.84,SW,222,0.0,4.0,78,0.00,,---,0.00,VWS V14.01,2013-11-24 15:40:00,
2013-11-24 09:42:00,18.2,11.0,30.83,South,182,0.0,3.0,73,0.00,,---,0.00,VWS V14.01,2013-11-24 15:42:00,
2013-11-24 09:47:00,18.5,11.0,30.83,SSW,210,0.0,3.0,72,0.00,,---,0.00,VWS V14.01,2013-11-24 15:47:00,
2013-11-24 09:50:00,15.2,9.3,30.84,SW,225,3.0,7.0,77,0.00,,---,0.00,VWS V14.01,2013-11-24 15:50:00,
2013-11-24 09:52:00,18.8,11.3,30.83,ESE,109,1.0,2.0,72,0.00,,---,0.00,VWS V14.01,2013-11-24 15:52:00,
2013-11-24 09:57:00,19.1,11.6,30.83,WSW,244,1.0,4.0,72,0.00,,---,0.00,VWS V14.01,2013-11-24 15:57:00,
2013-11-24 10:00:00,15.5,9.3,30.84,South,169,1.0,3.0,76,0.00,,---,0.00,VWS V14.01,2013-11-24 16:00:00,
2013-11-24 10:02:00,19.4,11.6,30.83,SE,138,1.0,4.0,71,0.00,,---,0.00,VWS V14.01,2013-11-24 16:02:00,
2013-11-24 10:07:00,19.8,11.3,30.83,SW,220,0.0,4.0,69,0.00,,---,0.00,VWS V14.01,2013-11-24 16:07:00,
2013-11-24 10:10:00,16.3,10.1,30.84,SSW,193,0.0,4.0,76,0.00,,---,0.00,VWS V14.01,2013-11-24 16:10:00,
2013-11-24 10:12:00,20.0,11.5,30.83,SW,227,1.0,4.0,69,0.00,,---,0.00,VWS V14.01,2013-11-24 16:12:00,
2013-11-24 10:17:00,20.3,11.1,30.83,SSE,168,1.0,7.0,67,0.00,,---,0.00,VWS V14.01,2013-11-24 16:17:00,
2013-11-24 10:20:00,17.0,10.2,30.84,SSW,200,0.0,3.0,74,0.00,,---,0.00,VWS V14.01,2013-11-24 16:20:00,
2013-11-24 10:22:00,20.5,11.3,30.83,SSW,204,1.0,5.0,67,0.00,,---,0.00,VWS V14.01,2013-11-24 16:22:00,
2013-11-24 10:27:00,20.8,11.2,30.83,SSE,160,0.0,5.0,66,0.00,,---,0.00,VWS V14.01,2013-11-24 16:27:00,
2013-11-24 10:30:00,17.5,10.6,30.83,SW,223,0.0,4.0,74,0.00,,---,0.00,VWS V14.01,2013-11-24 16:30:00,
2013-11-24 10:32:00,21.0,11.4,30.82,SSE,160,0.0,2.0,66,0.00,,---,0.00,VWS V14.01,2013-11-24 16:32:00,
2013-11-24 10:37:00,21.2,11.3,30.82,SE,139,1.0,4.0,65,0.00,,---,0.00,VWS V14.01,2013-11-24 16:37:00,
2013-11-24 10:40:00,18.1,10.9,30.83,SSW,213,0.0,4.0,73,0.00,,---,0.00,VWS V14.01,2013-11-24 16:40:00,
2013-11-24 10:42:00,21.5,11.6,30.81,SW,217,3.0,5.0,65,0.00,,---,0.00,VWS V14.01,2013-11-24 16:42:00,
2013-11-24 10:47:00,21.7,11.8,30.81,South,186,0.0,5.0,65,0.00,,---,0.00,VWS V14.01,2013-11-24 16:47:00,
2013-11-24 10:50:00,18.7,11.2,30.83,South,187,1.0,4.0,72,0.00,,---,0.00,VWS V14.01,2013-11-24 16:50:00,
2013-11-24 10:52:00,21.9,12.0,30.80,SE,133,0.0,2.0,65,0.00,,---,0.00,VWS V14.01,2013-11-24 16:52:00,
2013-11-24 10:57:00,22.2,11.9,30.81,SE,144,0.0,5.0,64,0.00,,---,0.00,VWS V14.01,2013-11-24 16:57:00,
2013-11-24 11:00:00,19.3,11.4,30.83,East,86,1.0,4.0,71,0.00,,---,0.00,VWS V14.01,2013-11-24 17:00:00,
2013-11-24 11:02:00,22.5,12.5,30.80,SSW,213,0.0,5.0,65,0.00,,---,0.00,VWS V14.01,2013-11-24 17:02:00,
2013-11-24 11:07:00,22.7,12.4,30.80,SE,142,0.0,5.0,64,0.00,,---,0.00,VWS V14.01,2013-11-24 17:07:00,
2013-11-24 11:10:00,19.9,11.1,30.83,South,190,0.0,4.0,68,0.00,,---,0.00,VWS V14.01,2013-11-24 17:10:00,
2013-11-24 11:12:00,22.9,12.2,30.80,ESE,106,1.0,4.0,63,0.00,,---,0.00,VWS V14.01,2013-11-24 17:12:00,
2013-11-24 11:17:00,23.2,12.8,30.79,ESE,105,1.0,4.0,64,0.00,,---,0.00,VWS V14.01,2013-11-24 17:17:00,
2013-11-24 11:20:00,20.4,11.2,30.83,WSW,243,2.0,7.0,67,0.00,,---,0.00,VWS V14.01,2013-11-24 17:20:00,
2013-11-24 11:22:00,23.5,12.8,30.79,ESE,123,2.0,4.0,63,0.00,,---,0.00,VWS V14.01,2013-11-24 17:22:00,
2013-11-24 11:27:00,23.7,13.0,30.79,SE,126,0.0,4.0,63,0.00,,---,0.00,VWS V14.01,2013-11-24 17:27:00,
2013-11-24 11:30:00,20.9,11.3,30.82,SSE,160,1.0,5.0,66,0.00,,---,0.00,VWS V14.01,2013-11-24 17:30:00,
2013-11-24 11:32:00,23.9,13.5,30.78,South,186,0.0,4.0,64,0.00,,---,0.00,VWS V14.01,2013-11-24 17:32:00,
2013-11-24 11:37:00,24.0,12.9,30.78,SSE,160,1.0,4.0,62,0.00,,---,0.00,VWS V14.01,2013-11-24 17:37:00,
2013-11-24 11:40:00,21.4,11.8,30.82,SE,139,0.0,4.0,66,0.00,,---,0.00,VWS V14.01,2013-11-24 17:40:00,
2013-11-24 11:42:00,24.3,13.2,30.77,SSE,160,0.0,2.0,62,0.00,,---,0.00,VWS V14.01,2013-11-24 17:42:00,
2013-11-24 11:47:00,24.3,13.2,30.77,SSE,160,1.0,4.0,62,0.00,,---,0.00,VWS V14.01,2013-11-24 17:47:00,
2013-11-24 11:50:00,21.8,11.9,30.81,South,187,0.0,5.0,65,0.00,,---,0.00,VWS V14.01,2013-11-24 17:50:00,
2013-11-24 11:52:00,24.5,13.7,30.76,SSE,160,0.0,2.0,63,0.00,,---,0.00,VWS V14.01,2013-11-24 17:52:00,
2013-11-24 11:57:00,24.7,13.6,30.76,SW,233,2.0,4.0,62,0.00,,---,0.00,VWS V14.01,2013-11-24 17:57:00,
2013-11-24 12:00:00,22.3,12.0,30.80,SE,144,0.0,5.0,64,0.00,,---,0.00,VWS V14.01,2013-11-24 18:00:00,
2013-11-24 12:02:00,24.9,13.7,30.75,SE,124,0.0,4.0,62,0.00,,---,0.00,VWS V14.01,2013-11-24 18:02:00,
2013-11-24 12:07:00,25.0,13.5,30.75,ESE,119,0.0,4.0,61,0.00,,---,0.00,VWS V14.01,2013-11-24 18:07:00,
2013-11-24 12:10:00,22.8,12.1,30.80,SSW,192,0.0,5.0,63,0.00,,---,0.00,VWS V14.01,2013-11-24 18:10:00,
2013-11-24 12:12:00,25.1,12.8,30.74,East,96,1.0,4.0,59,0.00,,---,0.00,VWS V14.01,2013-11-24 18:12:00,
2013-11-24 12:17:00,25.2,12.5,30.74,SSW,209,1.0,5.0,58,0.00,,---,0.00,VWS V14.01,2013-11-24 18:17:00,
2013-11-24 12:20:00,23.3,12.9,30.79,ESE,113,4.0,4.0,64,0.00,,---,0.00,VWS V14.01,2013-11-24 18:20:00,
2013-11-24 12:22:00,25.4,13.1,30.73,South,187,0.0,2.0,59,0.00,,---,0.00,VWS V14.01,2013-11-24 18:22:00,
2013-11-24 12:27:00,25.5,13.2,30.72,South,187,1.0,3.0,59,0.00,,---,0.00,VWS V14.01,2013-11-24 18:27:00,
2013-11-24 12:30:00,23.8,12.7,30.78,SE,146,0.0,4.0,62,0.00,,---,0.00,VWS V14.01,2013-11-24 18:30:00,
2013-11-24 12:32:00,25.6,12.5,30.72,South,187,0.0,3.0,57,0.00,,---,0.00,VWS V14.01,2013-11-24 18:32:00,
2013-11-24 12:37:00,25.7,13.4,30.72,ESE,109,2.0,3.0,59,0.00,,---,0.00,VWS V14.01,2013-11-24 18:37:00,
2013-11-24 12:40:00,24.1,13.0,30.77,SSE,160,1.0,4.0,62,0.00,,---,0.00,VWS V14.01,2013-11-24 18:40:00,
2013-11-24 12:42:00,25.9,12.8,30.72,SE,145,1.0,4.0,57,0.00,,---,0.00,VWS V14.01,2013-11-24 18:42:00,
2013-11-24 12:47:00,26.0,12.9,30.72,SE,145,0.0,4.0,57,0.00,,---,0.00,VWS V14.01,2013-11-24 18:47:00,
2013-11-24 12:50:00,24.4,13.6,30.76,SSE,160,0.0,4.0,63,0.00,,---,0.00,VWS V14.01,2013-11-24 18:50:00,
2013-11-24 12:52:00,26.2,13.1,30.71,SSW,212,1.0,4.0,57,0.00,,---,0.00,VWS V14.01,2013-11-24 18:52:00,
2013-11-24 12:57:00,26.4,13.6,30.70,SW,219,0.0,4.0,58,0.00,,---,0.00,VWS V14.01,2013-11-24 18:57:00,
2013-11-24 13:00:00,24.7,13.6,30.75,SW,233,0.0,4.0,62,0.00,,---,0.00,VWS V14.01,2013-11-24 19:00:00,
2013-11-24 13:02:00,26.6,13.8,30.70,SSW,211,0.0,2.0,58,0.00,,---,0.00,VWS V14.01,2013-11-24 19:02:00,
2013-11-24 13:07:00,26.7,13.9,30.69,East,96,1.0,2.0,58,0.00,,---,0.00,VWS V14.01,2013-11-24 19:07:00,
2013-11-24 13:10:00,25.0,13.5,30.74,ESE,119,0.0,4.0,61,0.00,,---,0.00,VWS V14.01,2013-11-24 19:10:00,
2013-11-24 13:12:00,26.9,14.5,30.69,SE,140,0.0,4.0,59,0.00,,---,0.00,VWS V14.01,2013-11-24 19:12:00,
2013-11-24 13:17:00,27.1,14.3,30.69,SE,126,0.0,5.0,58,0.00,,---,0.00,VWS V14.01,2013-11-24 19:17:00,
2013-11-24 13:20:00,25.3,12.6,30.74,South,187,0.0,5.0,58,0.00,,---,0.00,VWS V14.01,2013-11-24 19:20:00,
2013-11-24 13:22:00,27.3,14.1,30.68,SE,140,1.0,4.0,57,0.00,,---,0.00,VWS V14.01,2013-11-24 19:22:00,
2013-11-24 13:27:00,27.6,14.4,30.68,SE,140,1.0,4.0,57,0.00,,---,0.00,VWS V14.01,2013-11-24 19:27:00,
2013-11-24 13:30:00,25.5,12.0,30.72,South,187,0.0,3.0,56,0.00,,---,0.00,VWS V14.01,2013-11-24 19:30:00,
2013-11-24 13:32:00,27.7,14.1,30.68,ESE,111,1.0,4.0,56,0.00,,---,0.00,VWS V14.01,2013-11-24 19:32:00,
2013-11-24 13:37:00,27.8,14.2,30.68,SE,136,2.0,5.0,56,0.00,,---,0.00,VWS V14.01,2013-11-24 19:37:00,
2013-11-24 13:40:00,25.8,13.1,30.72,ESE,109,0.0,3.0,58,0.00,,---,0.00,VWS V14.01,2013-11-24 19:40:00,
2013-11-24 13:42:00,27.9,14.6,30.68,SW,225,2.0,2.0,57,0.00,,---,0.00,VWS V14.01,2013-11-24 19:42:00,
2013-11-24 13:47:00,28.0,14.3,30.67,WSW,240,2.0,5.0,56,0.00,,---,0.00,VWS V14.01,2013-11-24 19:47:00,
2013-11-24 13:50:00,26.1,12.6,30.71,SE,145,2.0,4.0,56,0.00,,---,0.00,VWS V14.01,2013-11-24 19:50:00,
2013-11-24 13:52:00,28.1,14.0,30.67,South,188,0.0,4.0,55,0.00,,---,0.00,VWS V14.01,2013-11-24 19:52:00,
2013-11-24 13:57:00,28.2,13.7,30.67,SE,128,0.0,4.0,54,0.00,,---,0.00,VWS V14.01,2013-11-24 19:57:00,
2013-11-24 14:00:00,26.5,13.3,30.70,SW,219,0.0,4.0,57,0.00,,---,0.00,VWS V14.01,2013-11-24 20:00:00,
2013-11-24 14:02:00,28.2,13.7,30.66,South,176,1.0,4.0,54,0.00,,---,0.00,VWS V14.01,2013-11-24 20:02:00,
2013-11-24 14:07:00,28.3,14.2,30.66,South,172,0.0,4.0,55,0.00,,---,0.00,VWS V14.01,2013-11-24 20:07:00,
2013-11-24 14:10:00,26.8,14.8,30.69,East,96,0.0,2.0,60,0.00,,---,0.00,VWS V14.01,2013-11-24 20:10:00,
2013-11-24 14:12:00,28.2,14.1,30.65,ENE,78,3.0,5.0,55,0.00,,---,0.00,VWS V14.01,2013-11-24 20:12:00,
2013-11-24 14:17:00,28.1,14.4,30.65,East,90,0.0,5.0,56,0.00,,---,0.00,VWS V14.01,2013-11-24 20:17:00,
2013-11-24 14:20:00,27.2,14.4,30.68,SE,130,0.0,5.0,58,0.00,,---,0.00,VWS V14.01,2013-11-24 20:20:00,
2013-11-24 14:22:00,28.3,13.8,30.65,South,173,0.0,2.0,54,0.00,,---,0.00,VWS V14.01,2013-11-24 20:22:00,
2013-11-24 14:27:00,28.4,14.3,30.65,South,174,0.0,4.0,55,0.00,,---,0.00,VWS V14.01,2013-11-24 20:27:00,
2013-11-24 14:30:00,27.7,13.6,30.68,SSW,211,0.0,4.0,55,0.00,,---,0.00,VWS V14.01,2013-11-24 20:30:00,
2013-11-24 14:32:00,28.6,14.5,30.65,SW,223,1.0,4.0,55,0.00,,---,0.00,VWS V14.01,2013-11-24 20:32:00,
2013-11-24 14:37:00,28.8,14.3,30.64,SW,216,3.0,5.0,54,0.00,,---,0.00,VWS V14.01,2013-11-24 20:37:00,
2013-11-24 14:40:00,27.9,14.6,30.68,SE,139,0.0,5.0,57,0.00,,---,0.00,VWS V14.01,2013-11-24 20:40:00,
2013-11-24 14:42:00,28.8,13.8,30.64,SSW,202,2.0,5.0,53,0.00,,---,0.00,VWS V14.01,2013-11-24 20:42:00,
2013-11-24 14:47:00,29.0,14.0,30.64,SSW,192,2.0,5.0,53,0.00,,---,0.00,VWS V14.01,2013-11-24 20:47:00,
2013-11-24 14:50:00,28.0,13.9,30.67,SSE,167,1.0,5.0,55,0.00,,---,0.00,VWS V14.01,2013-11-24 20:50:00,
2013-11-24 14:52:00,29.0,13.6,30.63,WSW,242,3.0,3.0,52,0.00,,---,0.00,VWS V14.01,2013-11-24 20:52:00,
2013-11-24 14:57:00,29.2,14.2,30.63,SSW,212,2.0,4.0,53,0.00,,---,0.00,VWS V14.01,2013-11-24 20:57:00,
2013-11-24 15:00:00,28.1,13.6,30.67,SSW,202,2.0,4.0,54,0.00,,---,0.00,VWS V14.01,2013-11-24 21:00:00,
2013-11-24 15:02:00,29.2,14.2,30.63,SSW,200,0.0,2.0,53,0.00,,---,0.00,VWS V14.01,2013-11-24 21:02:00,
2013-11-24 15:07:00,29.2,13.8,30.62,SW,232,2.0,3.0,52,0.00,,---,0.00,VWS V14.01,2013-11-24 21:07:00,
2013-11-24 15:10:00,28.3,14.2,30.66,East,101,0.0,4.0,55,0.00,,---,0.00,VWS V14.01,2013-11-24 21:10:00,
2013-11-24 15:12:00,29.3,13.9,30.63,SSW,201,3.0,4.0,52,0.00,,---,0.00,VWS V14.01,2013-11-24 21:12:00,
2013-11-24 15:17:00,29.3,13.9,30.62,SSW,200,0.0,4.0,52,0.00,,---,0.00,VWS V14.01,2013-11-24 21:17:00,
2013-11-24 15:20:00,28.2,14.5,30.65,South,173,1.0,5.0,56,0.00,,---,0.00,VWS V14.01,2013-11-24 21:20:00,
2013-11-24 15:22:00,29.4,13.5,30.62,SSW,200,0.0,2.0,51,0.00,,---,0.00,VWS V14.01,2013-11-24 21:22:00,
2013-11-24 15:27:00,29.4,13.5,30.63,SSE,155,1.0,2.0,51,0.00,,---,0.00,VWS V14.01,2013-11-24 21:27:00,
2013-11-24 15:30:00,28.5,14.0,30.65,SSW,200,0.0,4.0,54,0.00,,---,0.00,VWS V14.01,2013-11-24 21:30:00,
2013-11-24 15:32:00,29.4,12.6,30.63,SSE,166,4.0,4.0,49,0.00,,---,0.00,VWS V14.01,2013-11-24 21:32:00,
2013-11-24 15:37:00,29.4,13.1,30.62,SSE,166,0.0,4.0,50,0.00,,---,0.00,VWS V14.01,2013-11-24 21:37:00,
2013-11-24 15:40:00,28.8,14.3,30.64,SW,228,0.0,5.0,54,0.00,,---,0.00,VWS V14.01,2013-11-24 21:40:00,
2013-11-24 15:42:00,29.4,13.1,30.62,SSE,166,0.0,4.0,50,0.00,,---,0.00,VWS V14.01,2013-11-24 21:42:00,
2013-11-24 15:47:00,29.3,12.5,30.62,SSE,166,1.0,4.0,49,0.00,,---,0.00,VWS V14.01,2013-11-24 21:47:00,
2013-11-24 15:50:00,29.0,14.0,30.64,SSW,192,1.0,5.0,53,0.00,,---,0.00,VWS V14.01,2013-11-24 21:50:00,
2013-11-24 15:52:00,29.1,11.9,30.61,SW,232,1.0,2.0,48,0.00,,---,0.00,VWS V14.01,2013-11-24 21:52:00,
2013-11-24 15:57:00,29.0,12.2,30.61,South,191,2.0,3.0,49,0.00,,---,0.00,VWS V14.01,2013-11-24 21:57:00,
2013-11-24 16:00:00,29.2,14.2,30.63,SSW,212,1.0,4.0,53,0.00,,---,0.00,VWS V14.01,2013-11-24 22:00:00,
2013-11-24 16:02:00,28.8,12.1,30.61,SW,216,1.0,1.0,49,0.00,,---,0.00,VWS V14.01,2013-11-24 22:02:00,
2013-11-24 16:07:00,28.7,12.4,30.61,SSW,207,0.0,3.0,50,0.00,,---,0.00,VWS V14.01,2013-11-24 22:07:00,
2013-11-24 16:10:00,29.2,14.2,30.63,SW,225,1.0,5.0,53,0.00,,---,0.00,VWS V14.01,2013-11-24 22:10:00,
2013-11-24 16:12:00,28.5,11.8,30.61,SSW,200,0.0,4.0,49,0.00,,---,0.00,VWS V14.01,2013-11-24 22:12:00,
2013-11-24 16:17:00,28.4,11.7,30.61,South,190,0.0,4.0,49,0.00,,---,0.00,VWS V14.01,2013-11-24 22:17:00,
2013-11-24 16:20:00,29.3,13.9,30.62,SSW,200,1.0,4.0,52,0.00,,---,0.00,VWS V14.01,2013-11-24 22:20:00,
2013-11-24 16:22:00,28.3,12.1,30.60,SSW,210,1.0,4.0,50,0.00,,---,0.00,VWS V14.01,2013-11-24 22:22:00,
2013-11-24 16:27:00,28.1,11.9,30.60,SSW,210,0.0,4.0,50,0.00,,---,0.00,VWS V14.01,2013-11-24 22:27:00,
2013-11-24 16:30:00,29.4,12.6,30.63,South,191,1.0,4.0,49,0.00,,---,0.00,VWS V14.01,2013-11-24 22:30:00,
2013-11-24 16:32:00,28.0,11.8,30.60,SW,217,0.0,3.0,50,0.00,,---,0.00,VWS V14.01,2013-11-24 22:32:00,
2013-11-24 16:37:00,27.9,11.7,30.60,SW,217,0.0,3.0,50,0.00,,---,0.00,VWS V14.01,2013-11-24 22:37:00,
2013-11-24 16:40:00,29.4,13.1,30.62,SSE,166,0.0,4.0,50,0.00,,---,0.00,VWS V14.01,2013-11-24 22:40:00,
2013-11-24 16:42:00,27.8,12.5,30.60,SW,217,0.0,1.0,52,0.00,,---,0.00,VWS V14.01,2013-11-24 22:42:00,
2013-11-24 16:47:00,27.7,11.9,30.59,SW,225,0.0,3.0,51,0.00,,---,0.00,VWS V14.01,2013-11-24 22:47:00,
2013-11-24 16:50:00,29.2,12.0,30.62,SW,223,0.0,4.0,48,0.00,,---,0.00,VWS V14.01,2013-11-24 22:50:00,
2013-11-24 16:52:00,27.6,11.9,30.59,SW,215,0.0,1.0,51,0.00,,---,0.00,VWS V14.01,2013-11-24 22:52:00,
2013-11-24 16:57:00,27.6,11.9,30.59,SW,220,0.0,4.0,51,0.00,,---,0.00,VWS V14.01,2013-11-24 22:57:00,
2013-11-24 17:00:00,28.9,12.1,30.61,SW,216,0.0,3.0,49,0.00,,---,0.00,VWS V14.01,2013-11-24 23:00:00,
2013-11-24 17:02:00,27.5,12.2,30.58,SW,220,1.0,2.0,52,0.00,,---,0.00,VWS V14.01,2013-11-24 23:02:00,
2013-11-24 17:07:00,27.4,12.1,30.58,SSW,198,2.0,3.0,52,0.00,,---,0.00,VWS V14.01,2013-11-24 23:07:00,
2013-11-24 17:10:00,28.7,12.4,30.61,SSW,203,0.0,3.0,50,0.00,,---,0.00,VWS V14.01,2013-11-24 23:10:00,
2013-11-24 17:12:00,27.4,12.5,30.58,SSW,196,0.0,2.0,53,0.00,,---,0.00,VWS V14.01,2013-11-24 23:12:00,
2013-11-24 17:17:00,27.3,12.9,30.58,SSW,196,1.0,2.0,54,0.00,,---,0.00,VWS V14.01,2013-11-24 23:17:00,
2013-11-24 17:20:00,28.3,11.6,30.61,WSW,240,4.0,4.0,49,0.00,,---,0.00,VWS V14.01,2013-11-24 23:20:00,
2013-11-24 17:22:00,27.2,12.8,30.57,SSW,197,0.0,1.0,54,0.00,,---,0.00,VWS V14.01,2013-11-24 23:22:00,
2013-11-24 17:27:00,27.1,12.7,30.57,SSW,197,0.0,1.0,54,0.00,,---,0.00,VWS V14.01,2013-11-24 23:27:00,
2013-11-24 17:30:00,28.1,11.9,30.60,SW,218,2.0,4.0,50,0.00,,---,0.00,VWS V14.01,2013-11-24 23:30:00,
2013-11-24 17:32:00,27.0,13.0,30.57,SSW,197,0.0,1.0,55,0.00,,---,0.00,VWS V14.01,2013-11-24 23:32:00,
2013-11-24 17:37:00,26.9,12.9,30.57,SSW,210,0.0,4.0,55,0.00,,---,0.00,VWS V14.01,2013-11-24 23:37:00,
2013-11-24 17:40:00,27.8,11.6,30.60,SW,217,1.0,3.0,50,0.00,,---,0.00,VWS V14.01,2013-11-24 23:40:00,
2013-11-24 17:42:00,26.9,12.9,30.56,SSW,209,1.0,2.0,55,0.00,,---,0.00,VWS V14.01,2013-11-24 23:42:00,
2013-11-24 17:47:00,26.8,12.8,30.56,SSW,209,0.0,2.0,55,0.00,,---,0.00,VWS V14.01,2013-11-24 23:47:00,
2013-11-24 17:50:00,27.7,11.9,30.59,SW,215,0.0,3.0,51,0.00,,---,0.00,VWS V14.01,2013-11-24 23:50:00,
2013-11-24 17:52:00,26.7,12.7,30.56,SSW,198,3.0,3.0,55,0.00,,---,0.00,VWS V14.01,2013-11-24 23:52:00,
2013-11-24 17:57:00,26.7,12.3,30.56,SSW,194,0.0,4.0,54,0.00,,---,0.00,VWS V14.01,2013-11-24 23:57:00,
2013-11-24 18:00:00,27.5,11.8,30.58,SW,220,0.0,4.0,51,0.00,,---,0.00,VWS V14.01,2013-11-25 00:00:00,
2013-11-24 18:02:00,26.6,12.2,30.56,SSW,194,0.0,1.0,54,0.00,,---,0.00,VWS V14.01,2013-11-25 00:02:00,
2013-11-24 18:07:00,26.5,12.1,30.56,SSE,168,0.0,5.0,54,0.00,,---,0.00,VWS V14.01,2013-11-25 00:07:00,
2013-11-24 18:10:00,27.4,12.5,30.58,SSW,198,0.0,3.0,53,0.00,,---,0.00,VWS V14.01,2013-11-25 00:10:00,
2013-11-24 18:12:00,26.4,11.2,30.56,SSW,201,0.0,4.0,52,0.00,,---,0.00,VWS V14.01,2013-11-25 00:12:00,
2013-11-24 18:17:00,26.3,11.5,30.55,SSW,193,0.0,4.0,53,0.00,,---,0.00,VWS V14.01,2013-11-25 00:17:00,
2013-11-24 18:20:00,27.2,12.8,30.58,SSW,197,0.0,3.0,54,0.00,,---,0.00,VWS V14.01,2013-11-25 00:20:00,
2013-11-24 18:22:00,26.2,11.4,30.56,SW,223,0.0,2.0,53,0.00,,---,0.00,VWS V14.01,2013-11-25 00:22:00,
2013-11-24 18:27:00,26.1,11.7,30.55,SW,223,0.0,3.0,54,0.00,,---,0.00,VWS V14.01,2013-11-25 00:27:00,
2013-11-24 18:30:00,27.1,13.1,30.57,SSW,197,0.0,1.0,55,0.00,,---,0.00,VWS V14.01,2013-11-25 00:30:00,
2013-11-24 18:32:00,26.0,11.2,30.55,SW,229,0.0,2.0,53,0.00,,---,0.00,VWS V14.01,2013-11-25 00:32:00,
2013-11-24 18:37:00,25.9,12.0,30.54,SW,215,0.0,3.0,55,0.00,,---,0.00,VWS V14.01,2013-11-25 00:37:00,
2013-11-24 18:40:00,26.9,12.1,30.57,SSW,209,1.0,4.0,53,0.00,,---,0.00,VWS V14.01,2013-11-25 00:40:00,
2013-11-24 18:42:00,25.8,11.9,30.54,South,178,1.0,4.0,55,0.00,,---,0.00,VWS V14.01,2013-11-25 00:42:00,
2013-11-24 18:47:00,25.7,12.2,30.54,WSW,254,0.0,6.0,56,0.00,,---,0.00,VWS V14.01,2013-11-25 00:47:00,
2013-11-24 18:50:00,26.7,12.7,30.56,SSW,209,2.0,2.0,55,0.00,,---,0.00,VWS V14.01,2013-11-25 00:50:00,
2013-11-24 18:52:00,25.7,12.2,30.53,WSW,254,0.0,3.0,56,0.00,,---,0.00,VWS V14.01,2013-11-25 00:52:00,
2013-11-24 18:57:00,25.7,12.6,30.53,WSW,254,0.0,3.0,57,0.00,,---,0.00,VWS V14.01,2013-11-25 00:57:00,
2013-11-24 19:00:00,26.6,12.2,30.56,SSW,194,0.0,4.0,54,0.00,,---,0.00,VWS V14.01,2013-11-25 01:00:00,
2013-11-24 19:02:00,25.7,12.6,30.53,WSW,254,0.0,1.0,57,0.00,,---,0.00,VWS V14.01,2013-11-25 01:02:00,
2013-11-24 19:07:00,25.7,12.2,30.53,SSW,201,0.0,3.0,56,0.00,,---,0.00,VWS V14.01,2013-11-25 01:07:00,
2013-11-24 19:10:00,26.5,12.1,30.56,SSE,157,0.0,5.0,54,0.00,,---,0.00,VWS V14.01,2013-11-25 01:10:00,
2013-11-24 19:12:00,25.7,12.6,30.53,SSW,199,1.0,2.0,57,0.00,,---,0.00,VWS V14.01,2013-11-25 01:12:00,
2013-11-24 19:17:00,25.7,12.6,30.52,SSW,194,0.0,4.0,57,0.00,,---,0.00,VWS V14.01,2013-11-25 01:17:00,
2013-11-24 19:20:00,26.3,11.5,30.55,SW,224,0.0,4.0,53,0.00,,---,0.00,VWS V14.01,2013-11-25 01:20:00,
2013-11-24 19:22:00,25.7,12.6,30.52,ESE,115,0.0,4.0,57,0.00,,---,0.00,VWS V14.01,2013-11-25 01:22:00,
2013-11-24 19:27:00,25.7,12.6,30.52,SE,126,1.0,4.0,57,0.00,,---,0.00,VWS V14.01,2013-11-25 01:27:00,
2013-11-24 19:30:00,26.0,11.2,30.55,SSW,210,2.0,5.0,53,0.00,,---,0.00,VWS V14.01,2013-11-25 01:30:00,
2013-11-24 19:32:00,25.8,12.7,30.52,SSE,153,0.0,1.0,57,0.00,,---,0.00,VWS V14.01,2013-11-25 01:32:00,
2013-11-24 19:37:00,25.8,13.1,30.52,SSW,198,1.0,4.0,58,0.00,,---,0.00,VWS V14.01,2013-11-25 01:37:00,
2013-11-24 19:40:00,25.8,11.9,30.54,SW,215,1.0,3.0,55,0.00,,---,0.00,VWS V14.01,2013-11-25 01:40:00,
2013-11-24 19:42:00,25.9,13.6,30.52,SSW,205,1.0,4.0,59,0.00,,---,0.00,VWS V14.01,2013-11-25 01:42:00,
2013-11-24 19:47:00,25.9,13.6,30.52,SSW,200,0.0,4.0,59,0.00,,---,0.00,VWS V14.01,2013-11-25 01:47:00,
2013-11-24 19:50:00,25.7,12.2,30.54,WSW,254,0.0,6.0,56,0.00,,---,0.00,VWS V14.01,2013-11-25 01:50:00,
2013-11-24 19:52:00,26.0,14.0,30.51,SSW,200,1.0,3.0,60,0.00,,---,0.00,VWS V14.01,2013-11-25 01:52:00,
2013-11-24 19:57:00,26.0,14.4,30.51,SSW,199,1.0,3.0,61,0.00,,---,0.00,VWS V14.01,2013-11-25 01:57:00,
2013-11-24 20:00:00,25.7,12.6,30.53,WSW,254,0.0,3.0,57,0.00,,---,0.00,VWS V14.01,2013-11-25 02:00:00,
2013-11-24 20:02:00,26.0,14.4,30.51,SSW,203,1.0,5.0,61,0.00,,---,0.00,VWS V14.01,2013-11-25 02:02:00,
2013-11-24 20:07:00,26.1,14.5,30.50,SSW,203,0.0,5.0,61,0.00,,---,0.00,VWS V14.01,2013-11-25 02:07:00,
2013-11-24 20:10:00,25.7,12.2,30.53,SSW,201,0.0,3.0,56,0.00,,---,0.00,VWS V14.01,2013-11-25 02:10:00,
2013-11-24 20:12:00,26.1,14.5,30.50,SSW,205,0.0,6.0,61,0.00,,---,0.00,VWS V14.01,2013-11-25 02:12:00,
2013-11-24 20:17:00,26.1,14.9,30.50,SSW,205,1.0,6.0,62,0.00,,---,0.00,VWS V14.01,2013-11-25 02:17:00,
2013-11-24 20:20:00,25.7,12.6,30.52,SSW,193,1.0,4.0,57,0.00,,---,0.00,VWS V14.01,2013-11-25 02:20:00,
2013-11-24 20:22:00,26.1,14.9,30.50,SE,136,1.0,5.0,62,0.00,,---,0.00,VWS V14.01,2013-11-25 02:22:00,
2013-11-24 20:27:00,26.1,14.9,30.50,SW,222,0.0,5.0,62,0.00,,---,0.00,VWS V14.01,2013-11-25 02:27:00,
2013-11-24 20:30:00,25.8,12.7,30.52,SSE,153,0.0,5.0,57,0.00,,---,0.00,VWS V14.01,2013-11-25 02:30:00,
2013-11-24 20:31:00,26.2,15.0,30.50,SW,217,2.0,2.0,62,0.00,,---,0.00,VWS V14.01,2013-11-25 02:31:00,
2013-11-24 20:36:00,26.2,15.0,30.50,WSW,243,0.0,5.0,62,0.00,,---,0.00,VWS V14.01,2013-11-25 02:36:00,
2013-11-24 20:40:00,25.8,13.5,30.52,East,101,2.0,4.0,59,0.00,,---,0.00,VWS V14.01,2013-11-25 02:40:00,
2013-11-24 20:41:00,26.2,15.0,30.50,WSW,237,2.0,5.0,62,0.00,,---,0.00,VWS V14.01,2013-11-25 02:41:00,
2013-11-24 20:46:00,26.3,15.1,30.49,SW,218,0.0,5.0,62,0.00,,---,0.00,VWS V14.01,2013-11-25 02:46:00,
2013-11-24 20:50:00,25.9,13.6,30.51,SSW,196,0.0,4.0,59,0.00,,---,0.00,VWS V14.01,2013-11-25 02:50:00,
2013-11-24 20:51:00,26.3,14.7,30.49,SSW,192,1.0,3.0,61,0.00,,---,0.00,VWS V14.01,2013-11-25 02:51:00,
2013-11-24 20:56:00,26.3,14.7,30.49,WSW,248,3.0,3.0,61,0.00,,---,0.00,VWS V14.01,2013-11-25 02:56:00,
2013-11-24 21:00:00,26.0,14.0,30.51,SSE,161,1.0,4.0,60,0.00,,---,0.00,VWS V14.01,2013-11-25 03:00:00,
2013-11-24 21:01:00,26.4,14.8,30.49,SSW,196,2.0,3.0,61,0.00,,---,0.00,VWS V14.01,2013-11-25 03:01:00,
2013-11-24 21:06:00,26.4,15.2,30.49,South,187,0.0,4.0,62,0.00,,---,0.00,VWS V14.01,2013-11-25 03:06:00,
2013-11-24 21:10:00,26.1,14.5,30.50,SE,146,0.0,5.0,61,0.00,,---,0.00,VWS V14.01,2013-11-25 03:10:00,
2013-11-24 21:11:00,26.4,14.8,30.48,SSW,194,2.0,4.0,61,0.00,,---,0.00,VWS V14.01,2013-11-25 03:11:00,
2013-11-24 21:16:00,26.4,15.2,30.48,SSW,194,0.0,4.0,62,0.00,,---,0.00,VWS V14.01,2013-11-25 03:16:00,
2013-11-24 21:20:00,26.1,14.5,30.50,SSW,205,1.0,6.0,61,0.00,,---,0.00,VWS V14.01,2013-11-25 03:20:00,
2013-11-24 21:21:00,26.4,14.4,30.48,South,190,0.0,4.0,60,0.00,,---,0.00,VWS V14.01,2013-11-25 03:21:00,
2013-11-24 21:26:00,26.4,14.8,30.48,South,191,0.0,4.0,61,0.00,,---,0.00,VWS V14.01,2013-11-25 03:26:00,
2013-11-24 21:30:00,26.1,14.9,30.50,SW,217,0.0,5.0,62,0.00,,---,0.00,VWS V14.01,2013-11-25 03:30:00,
2013-11-24 21:31:00,26.4,14.4,30.48,SSE,155,1.0,4.0,60,0.00,,---,0.00,VWS V14.01,2013-11-25 03:31:00,
2013-11-24 21:36:00,26.4,14.4,30.48,East,101,1.0,4.0,60,0.00,,---,0.00,VWS V14.01,2013-11-25 03:36:00,
2013-11-24 21:40:00,26.2,15.0,30.50,WSW,240,1.0,5.0,62,0.00,,---,0.00,VWS V14.01,2013-11-25 03:40:00,
2013-11-24 21:41:00,26.4,14.4,30.48,SE,129,4.0,4.0,60,0.00,,---,0.00,VWS V14.01,2013-11-25 03:41:00,
2013-11-24 21:46:00,26.4,14.4,30.48,South,189,0.0,4.0,60,0.00,,---,0.00,VWS V14.01,2013-11-25 03:46:00,
2013-11-24 21:50:00,26.3,15.1,30.49,SSW,193,2.0,5.0,62,0.00,,---,0.00,VWS V14.01,2013-11-25 03:50:00,
2013-11-24 21:51:00,26.4,14.0,30.48,South,186,0.0,3.0,59,0.00,,---,0.00,VWS V14.01,2013-11-25 03:51:00,
2013-11-24 21:56:00,26.4,14.4,30.48,SSW,198,1.0,3.0,60,0.00,,---,0.00,VWS V14.01,2013-11-25 03:56:00,
2013-11-24 22:00:00,26.3,15.1,30.49,SSW,207,1.0,3.0,62,0.00,,---,0.00,VWS V14.01,2013-11-25 04:00:00,
2013-11-24 22:01:00,26.4,14.0,30.48,SSW,193,0.0,5.0,59,0.00,,---,0.00,VWS V14.01,2013-11-25 04:01:00,
2013-11-24 22:06:00,26.4,14.4,30.48,SSW,193,0.0,5.0,60,0.00,,---,0.00,VWS V14.01,2013-11-25 04:06:00,
2013-11-24 22:10:00,26.4,15.2,30.49,South,187,2.0,4.0,62,0.00,,---,0.00,VWS V14.01,2013-11-25 04:10:00,
2013-11-24 22:11:00,26.4,14.0,30.48,South,175,2.0,2.0,59,0.00,,---,0.00,VWS V14.01,2013-11-25 04:11:00,
2013-11-24 22:17:00,26.5,14.5,30.48,South,175,0.0,4.0,60,0.00,,---,0.00,VWS V14.01,2013-11-25 04:17:00,
2013-11-24 22:20:00,26.4,14.8,30.48,SSW,194,0.0,4.0,61,0.00,,---,0.00,VWS V14.01,2013-11-25 04:20:00,
2013-11-24 22:22:00,26.4,14.4,30.47,SE,138,0.0,4.0,60,0.00,,---,0.00,VWS V14.01,2013-11-25 04:22:00,
2013-11-24 22:27:00,26.5,14.5,30.48,SE,138,0.0,4.0,60,0.00,,---,0.00,VWS V14.01,2013-11-25 04:27:00,
2013-11-24 22:30:00,26.4,14.4,30.48,South,186,1.0,4.0,60,0.00,,---,0.00,VWS V14.01,2013-11-25 04:30:00,
2013-11-24 22:32:00,26.5,14.5,30.48,South,185,0.0,5.0,60,0.00,,---,0.00,VWS V14.01,2013-11-25 04:32:00,
2013-11-24 22:37:00,26.5,14.5,30.48,SW,223,0.0,5.0,60,0.00,,---,0.00,VWS V14.01,2013-11-25 04:37:00,
2013-11-24 22:40:00,26.4,14.0,30.48,SE,127,0.0,4.0,59,0.00,,---,0.00,VWS V14.01,2013-11-25 04:40:00,
2013-11-24 22:42:00,26.5,14.5,30.48,SW,225,0.0,2.0,60,0.00,,---,0.00,VWS V14.01,2013-11-25 04:42:00,
2013-11-24 22:47:00,26.6,14.6,30.48,SW,227,0.0,3.0,60,0.00,,---,0.00,VWS V14.01,2013-11-25 04:47:00,
2013-11-24 22:50:00,26.4,14.0,30.48,South,188,1.0,4.0,59,0.00,,---,0.00,VWS V14.01,2013-11-25 04:50:00,
2013-11-24 22:52:00,26.6,15.0,30.47,SW,227,1.0,2.0,61,0.00,,---,0.00,VWS V14.01,2013-11-25 04:52:00,
2013-11-24 22:57:00,26.5,14.9,30.47,SW,227,0.0,2.0,61,0.00,,---,0.00,VWS V14.01,2013-11-25 04:57:00,
2013-11-24 23:00:00,26.4,14.4,30.48,SSW,198,0.0,3.0,60,0.00,,---,0.00,VWS V14.01,2013-11-25 05:00:00,
2013-11-24 23:01:00,26.5,14.5,30.47,SW,227,0.0,1.0,60,0.00,,---,0.00,VWS V14.01,2013-11-25 05:01:00,
2013-11-24 23:06:00,26.5,14.5,30.47,SW,227,0.0,2.0,60,0.00,,---,0.00,VWS V14.01,2013-11-25 05:06:00,
2013-11-24 23:10:00,26.4,14.4,30.48,SSW,194,1.0,5.0,60,0.00,,---,0.00,VWS V14.01,2013-11-25 05:10:00,
2013-11-24 23:11:00,26.5,14.9,30.47,SW,227,0.0,1.0,61,0.00,,---,0.00,VWS V14.01,2013-11-25 05:11:00,
2013-11-24 23:17:00,26.5,14.9,30.47,SW,227,0.0,3.0,61,0.00,,---,0.00,VWS V14.01,2013-11-25 05:17:00,
2013-11-24 23:20:00,26.5,14.5,30.47,ESE,118,2.0,4.0,60,0.00,,---,0.00,VWS V14.01,2013-11-25 05:20:00,
2013-11-24 23:22:00,26.5,15.3,30.47,SW,227,0.0,1.0,62,0.00,,---,0.00,VWS V14.01,2013-11-25 05:22:00,
2013-11-24 23:27:00,26.5,14.9,30.46,SW,227,0.0,2.0,61,0.00,,---,0.00,VWS V14.01,2013-11-25 05:27:00,
2013-11-24 23:30:00,26.5,14.5,30.48,SSW,196,0.0,4.0,60,0.00,,---,0.00,VWS V14.01,2013-11-25 05:30:00,
2013-11-24 23:32:00,26.5,15.3,30.46,SW,227,0.0,2.0,62,0.00,,---,0.00,VWS V14.01,2013-11-25 05:32:00,
2013-11-24 23:37:00,26.6,15.0,30.46,SW,227,0.0,2.0,61,0.00,,---,0.00,VWS V14.01,2013-11-25 05:37:00,
2013-11-24 23:40:00,26.5,14.5,30.48,SW,225,0.0,5.0,60,0.00,,---,0.00,VWS V14.01,2013-11-25 05:40:00,
2013-11-24 23:42:00,26.6,15.4,30.46,SW,227,1.0,2.0,62,0.00,,---,0.00,VWS V14.01,2013-11-25 05:42:00,
2013-11-24 23:47:00,26.6,15.4,30.46,SW,225,0.0,5.0,62,0.00,,---,0.00,VWS V14.01,2013-11-25 05:47:00,
2013-11-24 23:50:00,26.5,14.5,30.47,SW,227,0.0,3.0,60,0.00,,---,0.00,VWS V14.01,2013-11-25 05:50:00,
2013-11-24 23:52:00,26.7,15.4,30.45,SW,223,0.0,2.0,62,0.00,,---,0.00,VWS V14.01,2013-11-25 05:52:00,
2013-11-24 23:57:00,26.7,15.4,30.45,SW,223,1.0,3.0,62,0.00,,---,0.00,VWS V14.01,2013-11-25 05:57:00,